This is the latest recevied weather packets stored in our database for station/object WC4PEM-9. If no packets are shown the sender has not sent any weather packets the latest 10 day(s).
| Time | Temp. | Humidity | Pressure | Rain* | Wind** | Luminosity | Snow |
|---|---|---|---|---|---|---|---|
| 1777497327 | 31.11° C | 48% | 1011.2 hPa | 0 mm | - | - | - |
| 1777497227 | 31.11° C | 48% | 1011.2 hPa | 0 mm | - | - | - |
| 1777497109 | 31.11° C | 49% | 1011.2 hPa | 0 mm | - | - | - |
| 1777496927 | 31.11° C | 49% | 1011.2 hPa | 0 mm | - | - | - |
| 1777496808 | 31.11° C | 48% | 1011.2 hPa | 0 mm | - | - | - |
| 1777496777 | 31.11° C | 48% | 1011.2 hPa | 0 mm | - | - | - |
| 1777496732 | 31.11° C | 48% | 1011.2 hPa | 0 mm | - | - | - |
| 1777496627 | 31.11° C | 48% | 1011.2 hPa | 0 mm | - | - | - |
| 1777496436 | 31.11° C | 50% | 1011.3 hPa | 0 mm | - | - | - |
| 1777496327 | 31.11° C | 50% | 1011.3 hPa | 0 mm | - | - | - |
| 1777496239 | 31.11° C | 50% | 1011.6 hPa | 0 mm | - | - | - |
| 1777496027 | 31.11° C | 50% | 1011.6 hPa | 0 mm | - | - | - |
| 1777495727 | 31.11° C | 53% | 1011.4 hPa | 0 mm | - | - | - |
| 1777495527 | 31.67° C | 51% | 1011.6 hPa | 0 mm | - | - | - |
| 1777495482 | 31.67° C | 51% | 1011.6 hPa | 0 mm | - | - | - |
| 1777495427 | 31.67° C | 51% | 1011.6 hPa | 0 mm | - | - | - |
| 1777495127 | 31.67° C | 53% | 1011.7 hPa | 0 mm | - | - | - |
| 1777494827 | 31.11° C | 52% | 1011.7 hPa | 0 mm | - | - | - |
| 1777494527 | 30.56° C | 53% | 1012 hPa | 0 mm | - | - | - |
| 1777494334 | 31.11° C | 52% | 1011.8 hPa | 0 mm | - | - | - |
| 1777494227 | 31.11° C | 52% | 1011.8 hPa | 0 mm | - | - | - |
| 1777494004 | 31.11° C | 53% | 1011.9 hPa | 0 mm | - | - | - |
| 1777493965 | 31.11° C | 53% | 1011.9 hPa | 0 mm | - | - | - |
| 1777493927 | 31.11° C | 53% | 1011.9 hPa | 0 mm | - | - | - |
| 1777493730 | 31.11° C | 54% | 1012.2 hPa | 0 mm | - | - | - |
* Rain latest hour (hover to see other rain measurements)
** Current wind speed in m/s (hover to see current wind gust speed)